Weather History for Crockett, TX

Change the Weather History Date:

Tuesday, April 8, 2014

  Actual Average (KLFK) Record (KLFK)
Temperature  
Mean Temperature 60 °F 65 °F  
Max Temperature 71 °F 77 °F 91 °F (1930)
Min Temperature 46 °F 53 °F 33 °F (1971)
Degree Days  
Heating Degree Days 6 3  
Month to date heating degree days 29  
Since 1 July heating degree days 1873  
Cooling Degree Days 0 3  
Month to date cooling degree days 22  
Year to date cooling degree days 82  
Growing Degree Days 10 (Base 50)    
Moisture  
Dew Point 48 °F    
Average Humidity 69    
Maximum Humidity 100    
Minimum Humidity 28    
Precipitation  
Precipitation 0.01 in 0.11 in 4.96 in (1968)
Month to date precipitation 0.80  
Year to date precipitation 12.63  
Snow  
Snow 0.00 in - - ()
Month to date snowfall  
Since 1 July snowfall  
Snow Depth -    
Sea Level Pressure  
Sea Level Pressure 30.09 in    
Wind  
Wind Speed 5 mph (NW)    
Max Wind Speed 21 mph    
Max Gust Speed 29 mph    
Visibility 10 miles    
Events Rain , Thunderstorm    
T = Trace of Precipitation, MM = Missing Value Source: NWS Daily Summary

Daily Weather History Graph

Daily Weather History Graph

Search for Another Location

Airport:

Trip Planner

Search our weather history database for the weather conditions in past years. The results will help you decide how hot, cold, wet, or windy it might be!

Date:

Astronomy

Apr. 08, 2014 Rise Set
Actual Time 7:01 AM CDT 7:45 PM CDT
Civil Twilight 6:37 AM CDT 8:10 PM CDT
Nautical Twilight 6:08 AM CDT 8:39 PM CDT
Astronomical Twilight 5:38 AM CDT 9:08 PM CDT
Moon 2:01 PM CDT (4/8) 2:52 AM CDT (4/8)
Length of Visible Light 13h 33m
Length of Day
12h 43m
Waxing Gibbous, 63% of the Moon is Illuminated
Apr 8
Waxing Gibbous
Apr 15
Full
Apr 22
Last Quarter
Apr 29
New
May 6
First Quarter

Hourly Weather History & Observations

Time (CDT) Temp. Dew Point Humidity Pressure Visibility Wind Dir Wind Speed Gust Speed Precip Events Conditions
12:15 AM 55.4 °F 55.4 °F 100% 30.04 in 7.0 mi WNW 8.1 mph - 0.01 in Rain , Thunderstorm Thunderstorms and Rain
12:35 AM 55.4 °F 55.4 °F 100% 30.03 in 4.0 mi WSW 5.8 mph - 0.12 in Rain , Thunderstorm Light Thunderstorms and Rain
1:15 AM 55.4 °F 55.4 °F 100% 30.00 in 10.0 mi Calm Calm - N/A   Mostly Cloudy
1:35 AM 55.4 °F 55.4 °F 100% 29.99 in 10.0 mi Calm Calm - N/A   Mostly Cloudy
1:55 AM 55.4 °F 55.4 °F 100% 29.99 in 10.0 mi Calm Calm - N/A   Overcast
2:15 AM 55.4 °F 55.4 °F 100% 30.01 in 10.0 mi Calm Calm - N/A   Scattered Clouds
2:35 AM 55.4 °F 55.4 °F 100% 30.00 in 9.0 mi Calm Calm - N/A   Partly Cloudy
2:55 AM 55.4 °F 55.4 °F 100% 30.01 in 5.0 mi Calm Calm - N/A   Partly Cloudy
3:15 AM 55.4 °F 55.4 °F 100% 30.01 in 4.0 mi Calm Calm - N/A   Scattered Clouds
3:35 AM 53.6 °F 53.6 °F 100% 30.01 in 4.0 mi Calm Calm - N/A   Mostly Cloudy
3:55 AM 53.6 °F 53.6 °F 100% 30.01 in 8.0 mi Calm Calm - N/A   Partly Cloudy
4:15 AM 53.6 °F 53.6 °F 100% 30.01 in 10.0 mi West 3.5 mph - N/A   Clear
4:35 AM 53.6 °F 53.6 °F 100% 30.02 in 10.0 mi Calm Calm - N/A   Clear
4:55 AM 53.6 °F 53.6 °F 100% 30.02 in 9.0 mi Calm Calm - N/A   Clear
5:15 AM 53.6 °F 51.8 °F 94% 30.02 in 10.0 mi Calm Calm - N/A   Clear
5:35 AM 53.6 °F 51.8 °F 94% 30.02 in 10.0 mi Calm Calm - N/A   Clear
5:55 AM 53.6 °F 51.8 °F 94% 30.02 in 10.0 mi Calm Calm - N/A   Clear
6:15 AM 53.6 °F 51.8 °F 94% 30.02 in 10.0 mi Calm Calm - N/A   Clear
6:35 AM 53.6 °F 51.8 °F 94% 30.04 in 10.0 mi Calm Calm - N/A   Clear
6:55 AM 53.6 °F 50.0 °F 88% 30.04 in 10.0 mi Calm Calm - N/A   Clear
7:15 AM 51.8 °F 50.0 °F 94% 30.05 in 9.0 mi Calm Calm - N/A   Clear
7:35 AM 51.8 °F 50.0 °F 94% 30.05 in 10.0 mi Calm Calm - N/A   Clear
7:55 AM 53.6 °F 51.8 °F 94% 30.06 in 10.0 mi Calm Calm - N/A   Clear
8:15 AM 55.4 °F 51.8 °F 88% 30.07 in 10.0 mi Calm Calm - 0.01 in   Clear
8:35 AM 55.4 °F 51.8 °F 88% 30.08 in 10.0 mi Calm Calm - 0.01 in   Clear
8:55 AM 57.2 °F 51.8 °F 82% 30.08 in 10.0 mi WNW 9.2 mph - 0.01 in   Clear
9:15 AM 57.2 °F 51.8 °F 82% 30.09 in 10.0 mi WNW 10.4 mph - N/A   Clear
9:35 AM 59.0 °F 51.8 °F 77% 30.09 in 10.0 mi WNW 8.1 mph - N/A   Clear
9:55 AM 60.8 °F 51.8 °F 72% 30.09 in 10.0 mi NW 9.2 mph - N/A   Clear
10:15 AM 60.8 °F 50.0 °F 68% 30.09 in 10.0 mi NW 11.5 mph 18.4 mph N/A   Clear
10:35 AM 62.6 °F 51.8 °F 68% 30.10 in 10.0 mi WNW 11.5 mph - N/A   Clear
10:55 AM 62.6 °F 50.0 °F 63% 30.11 in 10.0 mi WNW 13.8 mph 18.4 mph N/A   Clear
11:15 AM 64.4 °F 51.8 °F 64% 30.12 in 10.0 mi WNW 15.0 mph 19.6 mph N/A   Clear
11:35 AM 64.4 °F 50.0 °F 59% 30.12 in 10.0 mi WNW 10.4 mph 20.7 mph N/A   Clear
11:55 AM 64.4 °F 50.0 °F 59% 30.12 in 10.0 mi WNW 15.0 mph 20.7 mph N/A   Clear
12:15 PM 64.4 °F 48.2 °F 56% 30.12 in 10.0 mi WNW 15.0 mph 24.2 mph N/A   Clear
12:35 PM 66.2 °F 48.2 °F 52% 30.12 in 10.0 mi NW 10.4 mph 24.2 mph N/A   Clear
12:55 PM 66.2 °F 48.2 °F 52% 30.12 in 10.0 mi NW 9.2 mph 20.7 mph N/A   Clear
1:15 PM 66.2 °F 48.2 °F 52% 30.11 in 10.0 mi NW 16.1 mph 20.7 mph N/A   Partly Cloudy
1:35 PM 68.0 °F 48.2 °F 49% 30.11 in 10.0 mi NW 13.8 mph 21.9 mph N/A   Clear
1:55 PM 68.0 °F 46.4 °F 46% 30.11 in 10.0 mi NW 12.7 mph 19.6 mph N/A   Clear
2:15 PM 69.8 °F 46.4 °F 43% 30.10 in 10.0 mi WNW 15.0 mph 21.9 mph N/A   Clear
2:35 PM 69.8 °F 46.4 °F 43% 30.10 in 9.0 mi NW 13.8 mph 25.3 mph N/A   Clear
2:55 PM 69.8 °F 46.4 °F 43% 30.09 in 10.0 mi WNW 20.7 mph 27.6 mph N/A   Clear
3:15 PM 71.6 °F 44.6 °F 38% 30.09 in 10.0 mi WNW 16.1 mph 28.8 mph N/A   Clear
3:35 PM 69.8 °F 42.8 °F 38% 30.08 in 10.0 mi NW 18.4 mph 26.5 mph N/A   Clear
3:55 PM 69.8 °F 41.0 °F 35% 30.08 in 10.0 mi NNW 11.5 mph 24.2 mph N/A   Clear
4:15 PM 71.6 °F 42.8 °F 35% 30.08 in 10.0 mi WNW 12.7 mph 24.2 mph N/A   Clear
4:35 PM 71.6 °F 39.2 °F 31% 30.08 in 10.0 mi NW 18.4 mph 25.3 mph N/A   Clear
4:55 PM 71.6 °F 37.4 °F 29% 30.08 in 10.0 mi NW 11.5 mph 24.2 mph N/A   Clear
5:15 PM 71.6 °F 37.4 °F 29% 30.08 in 10.0 mi NW 13.8 mph 23.0 mph N/A   Clear
5:35 PM 71.6 °F 39.2 °F 31% 30.08 in 10.0 mi NW 16.1 mph 21.9 mph N/A   Clear
5:55 PM 71.6 °F 39.2 °F 31% 30.09 in 10.0 mi NW 9.2 mph 20.7 mph N/A   Clear
6:15 PM 71.6 °F 39.2 °F 31% 30.09 in 10.0 mi NW 11.5 mph 17.3 mph N/A   Clear
6:35 PM 71.6 °F 37.4 °F 29% 30.10 in 10.0 mi NW 8.1 mph 23.0 mph N/A   Clear
6:55 PM 69.8 °F 35.6 °F 28% 30.11 in 10.0 mi NNW 9.2 mph 21.9 mph N/A   Clear
7:15 PM 69.8 °F 37.4 °F 31% 30.12 in 10.0 mi NNW 8.1 mph - N/A   Clear
7:35 PM 68.0 °F 37.4 °F 33% 30.13 in 10.0 mi Calm Calm - N/A   Clear
7:55 PM 66.2 °F 35.6 °F 32% 30.13 in 10.0 mi NNW 6.9 mph - N/A   Clear
8:15 PM 64.4 °F 37.4 °F 37% 30.14 in 10.0 mi Calm Calm - N/A   Clear
8:35 PM 64.4 °F 37.4 °F 37% 30.15 in 10.0 mi Calm Calm - N/A   Clear
8:55 PM 59.0 °F 41.0 °F 51% 30.16 in 10.0 mi Calm Calm - N/A   Clear
9:15 PM 55.4 °F 42.8 °F 63% 30.17 in 10.0 mi Calm Calm - N/A   Clear
9:35 PM 53.6 °F 44.6 °F 72% 30.18 in 10.0 mi Calm Calm - N/A   Clear
9:55 PM 51.8 °F 46.4 °F 82% 30.19 in 10.0 mi Calm Calm - N/A   Clear
10:15 PM 51.8 °F 46.4 °F 82% 30.19 in 10.0 mi Calm Calm - N/A   Clear
10:35 PM 51.8 °F 44.6 °F 76% 30.20 in 10.0 mi Calm Calm - N/A   Clear
10:55 PM 48.2 °F 44.6 °F 87% 30.20 in 10.0 mi Calm Calm - N/A   Clear
11:15 PM 48.2 °F 44.6 °F 87% 30.20 in 10.0 mi Calm Calm - N/A   Clear
11:35 PM 48.2 °F 44.6 °F 87% 30.20 in 10.0 mi Calm Calm - N/A   Clear
11:55 PM 46.4 °F 44.6 °F 93% 30.20 in 10.0 mi Calm Calm - N/A   Clear